GW2437 Weather Reports


time (UTC)temp
F
wind
direction
speed
knots
gust
knots
rain 1hr
in
rain 24hr
in
rain mn
in
humidity
%
barometer
mb
20260505130159 74 72 0.0 2.6 0.00 0.00 0.00 95 1010.2
20260505124649 73 238 0.9 4.3 0.00 0.00 0.00 96 1010.0
20260505124145 73 80 0.9 1.7 0.00 0.00 0.00 96 1009.9
20260505123641 73 39 1.7 2.6 0.00 0.00 0.00 96 1009.9
20260505123138 73 124 0.9 4.3 0.00 0.00 0.00 96 1009.9
20260505122634 73 199 0.9 1.7 0.00 0.00 0.00 96 1009.9
20260505122132 73 76 1.7 1.7 0.00 0.00 0.00 96 1010.0
20260505121629 72 355 1.7 5.2 0.00 0.00 0.00 96 1009.8
20260505121126 72 52 0.0 0.9 0.00 0.00 0.00 96 1009.8
20260505120621 72 88 0.9 1.7 0.00 0.00 0.00 96 1009.9
20260505120117 72 59 0.0 5.2 0.00 0.00 0.00 96 1009.8
20260505115612 72 114 2.6 4.3 0.00 0.00 0.00 96 1009.6
20260505115110 72 96 0.0 2.6 0.00 0.00 0.00 95 1009.7
20260505114606 72 203 2.6 5.2 0.00 0.00 0.00 95 1009.7
20260505114103 72 181 0.0 0.9 0.00 0.00 0.00 95 1009.7
20260505113559 72 172 3.5 4.3 0.00 0.00 0.00 95 1009.6
20260505113056 72 86 0.9 4.3 0.00 0.00 0.00 95 1009.8
20260505112552 72 160 0.9 1.7 0.00 0.00 0.00 95 1009.5
20260505112050 72 244 1.7 1.7 0.00 0.00 0.00 95 1009.5
20260505111544 72 102 0.9 2.6 0.00 0.00 0.00 94 1009.6
20260505111040 72 125 0.9 5.2 0.00 0.00 0.00 94 1009.5
20260505110537 72 116 0.0 2.6 0.00 0.00 0.00 94 1009.3
20260505102010 72 38 0.0 4.3 0.00 0.00 0.00 94 1009.5
20260505101508 72 170 3.5 6.1 0.00 0.00 0.00 94 1009.6
20260505101004 72 140 0.9 2.6 0.00 0.00 0.00 94 1009.6
20260505100501 72 122 0.9 1.7 0.00 0.00 0.00 94 1009.5
20260505095957 72 88 1.7 1.7 0.00 0.00 0.00 94 1009.6
20260505095454 72 115 2.6 4.3 0.00 0.00 0.00 94 1009.5
20260505094950 72 85 0.0 1.7 0.00 0.00 0.00 94 1009.7
20260505094447 72 79 0.0 2.6 0.00 0.00 0.00 94 1009.8
20260505093943 71 102 0.9 4.3 0.00 0.00 0.00 94 1009.8
20260505093440 71 105 0.9 2.6 0.00 0.00 0.00 94 1010.0
20260505092937 71 71 0.9 0.9 0.00 0.00 0.00 94 1009.9
20260505092435 71 86 0.9 0.9 0.00 0.00 0.00 94 1009.7
20260505091932 71 168 1.7 1.7 0.00 0.00 0.00 95 1010.0
20260505091430 71 78 0.0 0.9 0.00 0.00 0.00 95 1010.1
20260505090928 71 87 0.0 0.0 0.00 0.00 0.00 95 1010.1
20260505090426 71 66 0.0 0.0 0.00 0.00 0.00 95 1010.2
20260505085922 70 76 0.0 1.7 0.00 0.00 0.00 95 1010.0
20260505085420 70 87 1.7 1.7 0.00 0.00 0.00 95 1009.8
20260505084918 70 79 0.0 1.7 0.00 0.00 0.00 95 1009.9
20260505084416 70 69 0.0 2.6 0.00 0.00 0.00 95 1010.0
20260505083914 70 77 0.0 0.9 0.00 0.00 0.00 95 1010.0
20260505083411 70 78 0.0 0.9 0.00 0.00 0.00 95 1009.8
20260505082907 69 103 0.9 1.7 0.00 0.00 0.00 96 1009.9
20260505082403 69 74 0.0 0.9 0.00 0.00 0.00 96 1010.0
20260505081900 69 274 0.9 1.7 0.00 0.00 0.00 97 1009.9
20260505081351 69 74 0.0 0.0 0.00 0.00 0.00 97 1010.1
20260505080848 68 70 0.0 0.9 0.00 0.00 0.00 97 1010.0
20260505080344 68 80 0.9 2.6 0.00 0.00 0.00 97 1010.2
20260505075839 68 61 0.0 0.9 0.00 0.00 0.00 97 1010.3
20260505075336 68 58 0.0 0.0 0.00 0.00 0.00 97 1010.1
20260505074833 68 79 0.0 0.9 0.00 0.00 0.00 97 1010.1
20260505074331 68 76 0.0 0.9 0.00 0.00 0.00 97 1010.2
20260505073828 68 70 0.0 0.0 0.00 0.00 0.00 97 1010.2
20260505073326 68 68 0.0 0.0 0.00 0.00 0.00 96 1010.4
20260505072822 68 83 0.9 0.9 0.00 0.00 0.00 96 1010.5
20260505072319 68 83 0.0 0.9 0.00 0.00 0.00 96 1010.4
20260505071814 68 217 1.7 2.6 0.00 0.00 0.00 96 1010.3
20260505071311 68 62 0.0 0.9 0.00 0.00 0.00 96 1010.3
20260505070809 68 167 0.9 2.6 0.00 0.00 0.00 96 1010.4
20260505070305 68 79 0.0 0.9 0.00 0.00 0.00 96 1010.5
20260505065800 68 61 0.0 1.7 0.00 0.00 0.00 95 1010.7
20260505065258 68 66 0.9 0.9 0.00 0.00 0.00 95 1010.8
20260505064755 68 107 0.0 0.0 0.00 0.00 0.00 95 1010.8
20260505064252 68 65 0.0 0.9 0.00 0.00 0.00 95 1010.9
20260505063749 68 154 0.9 1.7 0.00 0.00 0.00 95 1010.8
20260505063241 69 53 0.0 0.9 0.00 0.00 0.00 95 1010.9
20260505062737 69 76 0.9 1.7 0.00 0.00 0.00 94 1010.9
20260505062235 69 77 0.9 1.7 0.00 0.00 0.00 94 1011.3
20260505061731 69 102 0.9 2.6 0.00 0.00 0.00 94 1011.1
20260505061229 69 75 0.9 1.7 0.00 0.00 0.00 94 1011.2
20260505060726 69 107 0.9 0.9 0.00 0.00 0.00 94 1011.2
20260505060224 69 71 0.0 1.7 0.00 0.00 0.00 94 1011.1
20260505055718 69 208 1.7 2.6 0.00 0.00 0.00 94 1011.0
20260505055215 69 76 0.0 0.9 0.00 0.00 0.00 93 1011.1
20260505054713 69 138 1.7 2.6 0.00 0.00 0.00 93 1011.4
20260505054210 69 88 0.9 0.9 0.00 0.00 0.00 93 1011.2
20260505053709 69 123 1.7 1.7 0.00 0.00 0.00 93 1011.4
20260505053204 69 173 1.7 1.7 0.00 0.00 0.00 93 1011.3
20260505052701 69 75 0.0 0.9 0.00 0.00 0.00 93 1011.3
20260505052153 69 92 0.9 2.6 0.00 0.00 0.00 93 1011.3
20260505051650 69 76 0.9 0.9 0.00 0.00 0.00 93 1011.3
20260505051148 69 82 0.0 1.7 0.00 0.00 0.00 93 1011.0
20260505050645 69 53 0.9 0.9 0.00 0.00 0.00 93 1011.3
20260505050143 68 66 0.0 1.7 0.00 0.00 0.00 93 1011.4
20260505041613 69 96 0.9 2.6 0.00 0.00 0.00 91 1011.8
20260505041110 69 102 1.7 4.3 0.00 0.00 0.00 92 1011.6
20260505040608 69 73 0.0 0.9 0.00 0.00 0.00 91 1011.9
20260505040105 69 87 0.9 1.7 0.00 0.00 0.00 91 1012.2
20260505035601 69 96 1.7 2.6 0.00 0.00 0.00 91 1012.2
20260505035057 69 67 0.0 1.7 0.00 0.00 0.00 91 1012.1
20260505034554 69 153 2.6 5.2 0.00 0.00 0.00 91 1012.2
20260505034051 69 77 0.0 0.9 0.00 0.00 0.00 91 1012.0
20260505033548 69 74 0.0 1.7 0.00 0.00 0.00 91 1012.0
20260505033046 69 150 1.7 1.7 0.00 0.00 0.00 91 1011.9
20260505032544 69 151 2.6 2.6 0.00 0.00 0.00 91 1011.9
20260505032040 69 147 2.6 4.3 0.00 0.00 0.00 90 1011.9
20260505031537 69 55 0.0 0.9 0.00 0.00 0.00 90 1012.0
20260505031033 69 69 0.0 0.0 0.00 0.00 0.00 90 1012.0
20260505030531 70 82 0.9 2.6 0.00 0.00 0.00 90 1012.0
20260505030026 70 78 1.7 2.6 0.00 0.00 0.00 89 1011.9
20260505025522 70 85 0.9 2.6 0.00 0.00 0.00 89 1012.2
20260505025022 70 86 0.9 2.6 0.00 0.00 0.00 89 1012.0
20260505024518 70 43 0.0 5.2 0.00 0.00 0.00 88 1011.9
20260505024015 70 61 0.0 5.2 0.00 0.00 0.00 88 1011.9
20260505023512 70 73 0.9 1.7 0.00 0.00 0.00 88 1011.7
20260505023010 70 111 0.9 2.6 0.00 0.00 0.00 88 1011.7
20260505022507 70 105 0.9 2.6 0.00 0.00 0.00 87 1011.9
20260505022004 70 299 0.9 2.6 0.00 0.00 0.00 87 1011.7
20260505021501 70 3 0.9 2.6 0.00 0.00 0.00 87 1011.8
20260505020956 70 56 0.0 1.7 0.00 0.00 0.00 87 1011.6
20260505020452 70 96 1.7 1.7 0.00 0.00 0.00 86 1011.6
20260505015949 70 46 0.9 1.7 0.00 0.00 0.00 86 1011.5
20260505015446 71 95 0.0 2.6 0.00 0.00 0.00 86 1011.7
20260505014943 71 131 0.9 1.7 0.00 0.00 0.00 85 1011.5
20260505014440 71 121 0.9 1.7 0.00 0.00 0.00 85 1011.4
20260505013937 71 187 2.6 2.6 0.00 0.00 0.00 85 1011.4
20260505013434 71 101 1.7 4.3 0.00 0.00 0.00 84 1011.4
20260505012932 71 68 0.0 1.7 0.00 0.00 0.00 84 1011.3
20260505012430 71 48 0.9 1.7 0.00 0.00 0.00 83 1011.5
20260505011926 72 167 2.6 5.2 0.00 0.00 0.00 83 1011.6
20260505011422 72 167 0.0 1.7 0.00 0.00 0.00 82 1011.5
20260505010919 72 116 0.9 4.3 0.00 0.00 0.00 82 1011.4
20260505010415 72 70 2.6 4.3 0.00 0.00 0.00 81 1011.4
20260505005911 72 67 0.9 1.7 0.00 0.00 0.00 81 1011.4
20260505005408 73 81 0.9 4.3 0.00 0.00 0.00 80 1011.5
20260505004905 73 270 0.9 2.6 0.00 0.00 0.00 79 1011.6
20260505004402 73 82 0.9 5.2 0.00 0.00 0.00 79 1011.7
20260505003859 74 39 2.6 4.3 0.00 0.00 0.00 78 1011.5
20260505003356 74 203 1.7 6.1 0.00 0.00 0.00 77 1011.6
20260505002852 75 151 2.6 2.6 0.00 0.00 0.00 76 1011.5
20260505002349 75 96 0.9 4.3 0.00 0.00 0.00 76 1011.7
20260505001847 75 190 3.5 7.0 0.00 0.00 0.00 75 1011.5
20260505001344 75 67 1.7 4.3 0.00 0.00 0.00 74 1011.6
20260505000841 75 34 0.9 4.3 0.00 0.00 0.00 73 1011.5
20260505000339 75 64 1.7 6.1 0.00 0.00 0.00 74 1011.6
20260504235835 75 99 0.9 2.6 0.00 0.00 0.00 74 1011.5
20260504235333 75 94 0.9 1.7 0.00 0.00 0.00 74 1011.8
20260504234829 75 203 2.6 5.2 0.00 0.00 0.00 74 1012.0
20260504234327 75 82 0.9 1.7 0.00 0.00 0.00 73 1012.1
20260504233823 76 191 2.6 4.3 0.00 0.00 0.00 72 1012.0
20260504233319 77 130 0.9 4.3 0.00 0.00 0.00 70 1012.3
20260504232816 77 184 4.3 6.1 0.00 0.00 0.00 70 1012.1
20260504232313 77 237 1.7 7.8 0.00 0.00 0.00 70 1012.2
20260504231810 77 77 0.9 4.3 0.00 0.00 0.00 70 1012.2
20260504231306 77 66 1.7 2.6 0.00 0.00 0.00 69 1012.2
20260504230802 77 172 2.6 2.6 0.00 0.00 0.00 68 1012.2
20260504230300 78 115 1.7 7.0 0.00 0.00 0.00 69 1012.2
20260504225759 78 85 0.9 1.7 0.00 0.00 0.00 68 1012.4
20260504225255 77 50 1.7 7.0 0.00 0.00 0.00 69 1012.3
20260504224752 78 292 3.5 7.8 0.00 0.00 0.00 68 1012.3
20260504224249 78 81 1.7 6.1 0.00 0.00 0.00 68 1012.4
20260504223746 78 131 0.9 2.6 0.00 0.00 0.00 68 1012.5
20260504223241 77 58 0.9 4.3 0.00 0.00 0.00 70 1012.6
20260504222738 77 165 4.3 6.1 0.00 0.00 0.00 69 1012.8
20260504222235 77 282 0.9 4.3 0.00 0.00 0.00 69 1012.6
20260504221733 78 148 1.7 8.7 0.00 0.00 0.00 68 1012.6
20260504221229 78 226 1.7 4.3 0.00 0.00 0.00 69 1012.4
20260504220725 77 56 0.0 1.7 0.00 0.00 0.00 68 1012.5
20260504220218 78 148 5.2 6.1 0.00 0.00 0.00 67 1012.6
20260504215714 79 203 2.6 6.1 0.00 0.00 0.00 67 1012.9
20260504215212 78 247 0.9 6.1 0.00 0.00 0.00 67 1012.9
20260504214707 78 85 1.7 5.2 0.00 0.00 0.00 68 1012.9
20260504214204 78 106 0.9 0.9 0.00 0.00 0.00 67 1013.1
20260504213701 79 48 1.7 7.0 0.00 0.00 0.00 66 1013.0
20260504213157 79 207 3.5 4.3 0.00 0.00 0.00 66 1013.0
20260504212654 78 189 3.5 6.1 0.00 0.00 0.00 67 1013.1
20260504212150 78 186 4.3 7.0 0.00 0.00 0.00 67 1013.0
20260504211648 78 68 0.9 6.1 0.00 0.00 0.00 67 1013.1
20260504211144 79 174 2.6 7.8 0.00 0.00 0.00 66 1013.1
20260504210642 79 114 1.7 6.1 0.00 0.00 0.00 65 1013.2
20260504210138 79 131 3.5 8.7 0.00 0.00 0.00 66 1013.3
20260504205636 80 74 0.9 2.6 0.00 0.00 0.00 64 1013.4
20260504205133 80 279 2.6 2.6 0.00 0.00 0.00 65 1013.6
20260504204631 79 218 0.9 4.3 0.00 0.00 0.00 65 1013.6
20260504204130 80 101 2.6 6.1 0.00 0.00 0.00 63 1013.5
20260504203628 80 211 2.6 6.1 0.00 0.00 0.00 63 1013.5
20260504203125 80 190 1.7 4.3 0.00 0.00 0.00 65 1013.6
20260504202620 79 87 0.9 5.2 0.00 0.00 0.00 65 1013.5
20260504202117 79 186 5.2 7.0 0.00 0.00 0.00 64 1013.8
20260504201614 80 253 3.5 5.2 0.00 0.00 0.00 64 1013.8
20260504201112 80 252 1.7 7.0 0.00 0.00 0.00 66 1014.0
20260504200609 80 259 6.1 7.0 0.00 0.00 0.00 64 1014.1
20260504200105 79 227 2.6 5.2 0.00 0.00 0.00 64 1014.2
20260504195601 79 281 2.6 7.0 0.00 0.00 0.00 65 1014.2
20260504195057 79 127 2.6 4.3 0.00 0.00 0.00 66 1014.3
20260504194554 78 162 1.7 2.6 0.00 0.00 0.00 66 1014.2
20260504194050 78 219 2.6 5.2 0.00 0.00 0.00 65 1014.6
20260504193546 80 223 3.5 6.1 0.00 0.00 0.00 63 1014.7
20260504193045 81 209 4.3 6.1 0.00 0.00 0.00 62 1014.9
20260504192543 80 101 0.9 4.3 0.00 0.00 0.00 63 1014.8
20260504192041 80 52 2.6 5.2 0.00 0.00 0.00 62 1014.5
20260504191538 78 177 2.6 7.8 0.00 0.00 0.00 64 1014.8
20260504191034 80 215 4.3 5.2 0.00 0.00 0.00 62 1014.8
20260504190531 80 90 0.9 7.0 0.00 0.00 0.00 62 1014.7
20260504190027 80 212 3.5 7.0 0.00 0.00 0.00 62 1014.9
20260504185524 79 76 0.9 7.0 0.00 0.00 0.00 66 1014.9
20260504185021 78 236 0.9 2.6 0.00 0.00 0.00 65 1015.1
20260504184516 80 253 3.5 7.0 0.00 0.00 0.00 63 1015.1
20260504184012 79 4 1.7 6.1 0.00 0.00 0.00 63 1015.1
20260504183509 78 123 1.7 4.3 0.00 0.00 0.00 67 1015.2
20260504183008 80 195 5.2 6.1 0.00 0.00 0.00 64 1015.1
20260504182503 79 248 1.7 6.1 0.00 0.00 0.00 65 1015.2
20260504182001 78 224 0.9 5.2 0.00 0.00 0.00 66 1015.4
20260504181458 79 5 2.6 5.2 0.00 0.00 0.00 65 1015.5
20260504180956 80 169 3.5 4.3 0.00 0.00 0.00 65 1015.6
20260504180455 79 223 2.6 2.6 0.00 0.00 0.00 65 1015.5
20260504175953 78 225 1.7 4.3 0.00 0.00 0.00 65 1015.5
20260504175450 78 192 4.3 8.7 0.00 0.00 0.00 66 1015.7
20260504174947 78 118 4.3 5.2 0.00 0.00 0.00 64 1015.5
20260504174445 78 124 3.5 9.6 0.00 0.00 0.00 65 1015.7
20260504173942 78 173 2.6 5.2 0.00 0.00 0.00 66 1015.9
20260504173438 77 112 1.7 4.3 0.00 0.00 0.00 66 1015.8
20260504172936 79 305 4.3 6.1 0.00 0.00 0.00 63 1015.6
20260504172431 78 206 2.6 11.3 0.00 0.00 0.00 63 1015.9
20260504171928 77 168 1.7 7.8 0.00 0.00 0.00 68 1015.8
20260504171426 77 244 4.3 6.1 0.00 0.00 0.00 66 1015.8
20260504170922 78 247 2.6 8.7 0.00 0.00 0.00 65 1015.7
20260504170419 78 80 2.6 2.6 0.00 0.00 0.00 66 1015.9
20260504160338 77 214 2.6 8.7 0.00 0.00 0.00 67 1016.6
20260504150802 76 71 1.7 7.8 0.00 0.00 0.00 68 1016.6
20260504150259 76 197 1.7 1.7 0.00 0.00 0.00 70 1016.6
20260504141229 73 70 0.9 5.2 0.00 0.00 0.00 71 1016.7
20260504140725 73 90 0.0 0.9 0.00 0.00 0.00 69 1016.6
20260504140221 72 59 0.0 2.6 0.00 0.00 0.00 70 1016.8